Showing default

LARETS, 27944

Orbit data source: Space-Track

LARETS, 27944 is a payload satellite owned by NII KP (CIS) in SSO that was launched on Sat, 27 Sep 2003 UTC via a KOSMOS 11K65M launch vehicle from the Plesetsk Missile And Space Complex (PKMTR). Payload-class satellites include a variety of spacecraft equipped with specific instruments for various scientific and technological missions. These include communications satellites like Starlink; space stations such as the ISS; scientific satellites like the Hubble; Earth observation satellites from companies like Planet Labs, Umbra, and HawkEye 360; GPS; miniature CubeSats for education and research; and military/defense satellites.

Loading next visibility...
Identifier
27944, 2003-042F
Orbit
SSO
Last TLE update
6 hours ago
Origin
Manufacturer
NII KP
Mission
Operational Defense Calibration
Bus & Motor
Unknown
Mass
~10 kg wet, ~10 kg dry
Launch date (UTC)
2003-09-27 (22 years ago)
Launch vehicle
KOSMOS 11K65M
Launch site
Plesetsk Missile And Space Complex (PKMTR)
Object type
Payload
Rocket body
Debris
Shape & HBR
Sphere, 0.2 m
Radar Cross Section
0.031 m², Medium (>0.1 m² and < 1m²)

Expand to show TLE details & history

TLE from 6 hours ago
0 LARETS
1 27944U 03042F   25182.86519550  .00000044  00000-0  18076-4 0  9996
2 27944  98.3701 333.6508 0013280  53.3724 306.8696 14.63765736162197
Epoch: 2025-07-01T20:45Z
TLE epoch observation values (Epoch: 2025-07-01T20:45:52.891Z)
Latitude
-0.00009°
Longitude
102.02591°
Altitude
678.408 km
Speed
7.52 km/s
True Right ascension
22h 14m 36s
True Declination
0° 00' 00"
Sunlit
Object was in full shadow at epoch
Visualization orbit readout
Latitude
-39.95355°
Longitude
-84.76539°
Altitude
705.475 km
Speed
7.497 km/s
Apparent Right ascension
06h 22m 20s
Apparent Declination
-55° 45' 28"
Sunlit
Object is in daylight
Visualization observer readout
Local Sidereal Time
14:22:26
Azimuth
227.058° WSW
Elevation
-48.278°
Doppler factor
1
Orbital elements
Apogee altitude
687.496 km
Perigee altitude
668.754 km
Semi-major axis
7,056.262 km
Eccentricity
0.00133
Inclination
98.3701°
RAAN
333.6508°
Arg. of periapsis
53.3724°
True anomaly
Unknown
Mean anomaly
306.8696°
Eccentric anomaly
Unknown
Mean motion
3.66169 °/min
Orbital period
98.32 mins
BSTAR
0.000018076
Loading maneuver chart data...
Loading SW <> Apogee altitude chart data...
Loading historical data...
Loading historical data...
Loading historical data...
Loading historical data...
Loading historical data...
Loading historical data...
Loading historical data...

LARETS Visibility forecast

Observer location: undefined°, undefined°

Span
Click to sort rows by Start time (UTC) header in descending order
Start Az.
Max El. time (UTC)
Max El. Az.
Max El.
End time (UTC)
End Az.
8 mins2025-07-02 10:00:19.214Z163.918° S2025-07-02 10:04:19.214Z107.744° ESE44.913°2025-07-02 10:08:19.214Z347.937° N
5 mins2025-07-02 21:59:19.214Z66.528° ENE2025-07-02 22:01:19.214Z100.523° ESE18.976°2025-07-02 22:04:19.214Z141.509° SSE
7 mins2025-07-02 23:35:19.214Z349.019° N2025-07-02 23:38:19.214Z290.705° WNW31.568°2025-07-02 23:42:19.214Z223.871° SW
|